Location: Seven Kings
(51.5667°N, 0.1000°E)
Time: 03:31:52
(UTC+00:00)

SeaSat 1 - Pass Details

Date: 29 October 2020
Orbit: 744 x 747 km, 108.0° (Epoch: 24 November)

Event Time Altitude Azimuth Distance (km) Brightness Sun altitude
Exits shadow 18:00:38 20° 90° (E) 1,704 3.7 -13.4°
Maximum altitude 18:03:10 31° 44° (NE) 1,304 3.3 -13.8°
Drops below altitude 10° 18:07:28 10° 343° (NNW) 2,277 5.1 -14.5°
Sets 18:09:57 0° 334° (NNW) 3,205 6.0 -14.9°
